Regional Weather Roundup
Issued by NWS Mobile, AL

Home | Current Version | Previous Version | Text Only | Print | Product List | Glossary On
Versions: 1 2 3 4 5 6 7 8 9 10 11 12 13 14 15 16 17 18 19 20 21 22 23 24 25 26 27 28 29 30 31 32 33 34 35 36 37 38 39 40 41 42 43 44 45 46 47 48 49 50
000
ASUS44 KMOB 240110
RWRMOB
REGIONAL WEATHER ROUNDUP
NATIONAL WEATHER SERVICE MOBILE AL
800 PM CDT TUE SEP 23 2014

NOTE: "FAIR" INDICATES FEW OR NO CLOUDS BELOW 12,000 FEET WITH NO
      SIGNIFICANT WEATHER AND/OR OBSTRUCTIONS TO VISIBILITY.

  * THESE STATIONS ARE PART OF THE UNIVERSITY OF SOUTH ALABAMA
    MESONET AND ARE NOT UNDER NWS OR FAA QUALITY CONTROL.

ALZ061>064-240200-
COASTAL ALABAMA

CITY           SKY/WX    TMP DP  RH WIND       PRES   REMARKS
MOBILE REG APT CLEAR     71  59  65 E5        30.07R
BROOKLEY FIELD CLEAR     77  61  57 E15       30.07R
USA CAMPUS*      N/A     68  59  73 CALM      30.07R
DOG RIVER*     NOT AVBL


CITY           SKY/WX    TMP DP  RH WIND       PRES   REMARKS
MOUNT VERNON*  NOT AVBL
SARALAND*      NOT AVBL
BAY MINETTE*   NOT AVBL
LOXLEY*          N/A     70  59  68 E2        30.08R
ROBERTSDALE*     N/A     70  59  68 CALM      30.07
FAIRHOPE*      NOT AVBL
ELBERTA*         N/A     73  59  60 N3        30.05R
FOLEY*         NOT AVBL
GRAND BAY*       N/A     70  57  64 NE2       30.04R
DAUPHIN ISLND* NOT AVBL
BON SCOUR NWR* NOT AVBL
GULF SHORES    CLEAR     71  63  75 N3        30.06R

$$

ALZ051>060-240200-
INTERIOR SOUTHWEST AND SOUTH CENTRAL ALABAMA

CITY           SKY/WX    TMP DP  RH WIND       PRES   REMARKS
GREENVILLE     CLEAR     70  60  70 NE6       30.11R
EVERGREEN      CLEAR     68  61  78 CALM      30.10R
CASTLEBERRY*   NOT AVBL
ATMORE*        NOT AVBL
DIXIE*         NOT AVBL
ANDALUSIA/OPP  CLEAR     74  61  63 E3        30.10R
ANDALUSIA*     NOT AVBL
FLORALA APT    CLEAR     69  60  73 N5        30.11R
FLORALA*         N/A     70  59  68 CALM      30.06R

$$

FLZ001>006-240200-
WESTERN FLORIDA PANHANDLE

CITY           SKY/WX    TMP DP  RH WIND       PRES   REMARKS
PENSACOLA      CLEAR     72  62  71 N7        30.06R
NAS PENSACOLA  CLEAR     74  62  66 N6        30.05R
MILTON         CLEAR     70  59  68 N8        30.07R
WHTNG S FIELD  CLEAR     73  61  65 NE7       30.07R


CITY           SKY/WX    TMP DP  RH WIND       PRES   REMARKS
WALNUT HILL*   NOT AVBL
JAY*             N/A     72  57  60 NE5       30.08R
DUKE FIELD     CLEAR     71  64  78 NE2       30.07R
CRESTVIEW      CLEAR     71  61  70 NE5       30.09R
VALPARAISO     CLEAR     75  63  67 NE8       30.06R
DESTIN         CLEAR     77  64  64 NE8       30.05R

$$

MSZ076-079-240200-
INTERIOR SOUTHEAST MISSISSIPPI

CITY           SKY/WX    TMP DP  RH WIND       PRES   REMARKS
LEAKESVILLE*     N/A     73  52  46 N5        30.07R
AGRICOLA*      NOT AVBL

$$

MARINE OBSERVATIONS

STATION/POSITION TIME  TEMP    WIND        PRES    WAVE
                       AIR SEA DIR/SP/G            HT/PER
                 (UTC) (F)     (DEG/KT/KT) (MB)    (FT/S)
PASCAGOULA       0100   78      60/  7/  9 1017.4R
PETIT BOIS ISLND 0100   80      60/ 16/ 20 1017.7R
GRAND BAY        0000   79      60/  9     1018.0S
KATRINA CUT      0000   80      70/ 16     1017.6S
CEDAR POINT      0000   78      60/ 13     1017.3R
E DAUPHIN ISLAND 0100   78      40/ 18/ 20 1017.9R
MIDDLE BAY LIGHT 0000   78      60/ 16     1017.3R
USCG MOBILE BAY  0100   77 83              1016.8S
STATE DOCKS      0000   76 84              1017.7R
MEAHER PARK      0000   76      50/  5     1017.6R
WEEKS BAY        0000   76                   N/A
FORT MORGAN      0100           60/ 19/ 21   N/A
12 S ORANGE BCH  0100   79 84   70/ 12/ 14 1017.5R   2/ 5
PENSACOLA BAY    0100   78 83   30/  8/ 10 1017.9S
67 S FORT MORGAN 0000   78                 1016.3R

$$

SELECTED LOCATIONS ACROSS THE REGION

CITY           SKY/WX    TMP DP  RH WIND       PRES   REMARKS
NEW ORLEANS    PTCLDY    78  57  48 E5        30.04R
GULFPORT       CLEAR     77  58  51 NE3       30.05R
PASCAGOULA AP  CLEAR     67  58  72 NE3       30.06R
PASCAGOULA*    NOT AVBL
HATTIESBURG    CLEAR     70  60  70 CALM      30.07S
LAUREL         CLEAR     66  55  68 CALM      30.09S
MERIDIAN       CLEAR     67  58  72 CALM      30.09R
JACKSON        CLEAR     71  58  63 CALM      30.09S
MONTGOMERY     MOCLDY    76  58  53 NE9       30.12R
TROY           CLEAR     69  59  70 NE5       30.12R
KINSTON*       NOT AVBL
GENEVA*          N/A     68  59  73 NE6       30.11R
ASHFORD*       NOT AVBL
DOTHAN         CLEAR     69  61  75 NE5       30.14R
PANAMA CITY    CLEAR     74  64  71 N7        30.05R

$$



USA.gov is the U.S. government's official web portal to all federal, state and local government web resources and services.